Fort Stockton, TX

12:13 PM CDT on July 24, 2017 (GMT -0500)
Fort Stockton-Pecos County

Weather History for KFST - August, 2013

Change the Weather History Date:

Thursday, August 22, 2013

  Actual Average Record
Temperature  
Mean Temperature 80 °F -  
Max Temperature 93 °F 90 °F 100 °F (1997)
Min Temperature 69 °F 68 °F 66 °F (1998)
Cooling Degree Days 15    
Growing Degree Days 30 (Base 50)    
Moisture  
Dew Point 59 °F    
Average Humidity 50    
Maximum Humidity 81    
Minimum Humidity 28    
Precipitation  
Precipitation 0.00 in - - ()
Sea Level Pressure  
Sea Level Pressure 29.94 in    
Wind  
Wind Speed 11 mph (SE)    
Max Wind Speed 20 mph    
Max Gust Speed 24 mph    
Visibility 10 miles    
Events      
Averages and records for this station are not official NWS values.
T = Trace of Precipitation, MM = Missing Value Source: NWS Daily Summary

Daily Weather History Graph

Daily Weather History Graph

Search for Another Location

Airport or City:

Trip Planner

Search our weather history database for the weather conditions in past years. The results will help you decide how hot, cold, wet, or windy it might be!

Date:

Astronomy

Aug. 22, 2013 Rise Set
Actual Time 7:22 AM CDT 8:26 PM CDT
Civil Twilight 6:57 AM CDT 8:51 PM CDT
Nautical Twilight 6:27 AM CDT 9:20 PM CDT
Astronomical Twilight 5:56 AM CDT 9:51 PM CDT
Moon 9:25 PM CDT (8/22) 9:01 AM CDT (8/22)
Length of Visible Light 13h 54m
Length of Day
13h 03m
Waning Gibbous, 96% of the Moon is Illuminated
Aug 22
Waning Gibbous
Aug 28
Last Quarter
Sep 5
New
Sep 12
First Quarter
Sep 19
Full

Hourly Weather History & Observations

Time (CDT) Temp. Heat Index Dew Point Humidity Pressure Visibility Wind Dir Wind Speed Gust Speed Precip Events Conditions
12:53 AM 77.0 °F - 57.9 °F 52% 29.96 in 10.0 mi SE 10.4 mph - N/A   Clear
1:53 AM 75.0 °F - 60.1 °F 60% 29.96 in 10.0 mi SSE 10.4 mph - N/A   Clear
2:53 AM 73.0 °F - 60.1 °F 64% 29.95 in 10.0 mi SE 8.1 mph - N/A   Clear
3:53 AM 72.0 °F - 60.1 °F 66% 29.94 in 10.0 mi SE 8.1 mph - N/A   Clear
4:53 AM 70.0 °F - 61.0 °F 73% 29.94 in 10.0 mi SSE 4.6 mph - N/A   Clear
5:53 AM 69.1 °F - 61.0 °F 75% 29.95 in 10.0 mi ESE 5.8 mph - N/A   Clear
6:53 AM 69.1 °F - 62.1 °F 78% 29.97 in 10.0 mi SE 10.4 mph - N/A   Clear
7:53 AM 69.1 °F - 63.0 °F 81% 29.98 in 10.0 mi SSE 11.5 mph - N/A   Clear
8:53 AM 71.1 °F - 63.0 °F 75% 30.00 in 10.0 mi SSE 19.6 mph 24.2 mph N/A   Clear
9:53 AM 75.9 °F - 63.0 °F 64% 30.00 in 10.0 mi SSE 15.0 mph - N/A   Clear
10:53 AM 82.0 °F 83.0 °F 62.1 °F 51% 30.00 in 10.0 mi SSE 12.7 mph - N/A   Clear
11:53 AM 84.9 °F 84.8 °F 60.1 °F 43% 30.00 in 10.0 mi SSE 9.2 mph - N/A   Clear
12:53 PM 88.0 °F 86.7 °F 57.0 °F 35% 29.97 in 10.0 mi ESE 8.1 mph 18.4 mph N/A   Partly Cloudy
1:53 PM 90.0 °F 88.6 °F 57.0 °F 33% 29.95 in 10.0 mi South 11.5 mph 19.6 mph N/A   Scattered Clouds
2:53 PM 90.0 °F 88.1 °F 55.9 °F 31% 29.92 in 10.0 mi SE 12.7 mph 18.4 mph N/A   Clear
3:53 PM 91.0 °F 88.7 °F 54.0 °F 28% 29.90 in 10.0 mi SE 15.0 mph 20.7 mph N/A   Clear
4:53 PM 91.0 °F 89.2 °F 55.9 °F 30% 29.88 in 10.0 mi SE 16.1 mph 23.0 mph N/A   Clear
5:53 PM 90.0 °F 88.1 °F 55.9 °F 31% 29.87 in 10.0 mi SE 17.3 mph 21.9 mph N/A   Clear
6:53 PM 89.1 °F 87.1 °F 55.0 °F 31% 29.87 in 10.0 mi ESE 18.4 mph 24.2 mph N/A   Clear
7:53 PM 87.1 °F 85.3 °F 55.0 °F 33% 29.88 in 10.0 mi SE 12.7 mph 20.7 mph N/A   Clear
8:53 PM 84.0 °F 83.5 °F 57.9 °F 41% 29.91 in 10.0 mi SE 11.5 mph 18.4 mph N/A   Clear
9:53 PM 82.0 °F 82.1 °F 59.0 °F 45% 29.94 in 10.0 mi SSE 4.6 mph - N/A   Clear
10:53 PM 82.0 °F 82.0 °F 57.9 °F 44% 29.93 in 10.0 mi SE 13.8 mph - N/A   Clear
11:53 PM 80.1 °F 80.6 °F 57.9 °F 47% 29.94 in 10.0 mi SSE 11.5 mph - N/A   Clear